Location: ??????
(42.0089°N, 44.3281°E)
Time: 10:33:10
(UTC+00:00)

CZ-2C R/B - Pass Details

Date: 06 June 2022
Orbit: 785 x 869 km, 98.2° (Epoch: 30 June)

Event Time Altitude Azimuth Distance (km) Brightness Sun altitude
Rises 23:59:18 0° 114° (ESE) 3,309 6.0 -13.4°
Reaches altitude 10° 00:02:39 10° 91° (E) 2,399 5.7 -13.0°
Maximum altitude 00:05:27 15° 59° (ENE) 2,102 5.9 -12.6°
Drops below altitude 10° 00:08:17 10° 27° (NNE) 2,436 6.4 -12.3°
Sets 00:11:43 0° 5° (N) 3,393 6.7 -11.8°
